Ljungbyhed,

4:47 AM CEST on April 23, 2018 (GMT +0200)
Ljungbyhed

Weather History for ESTL - February, 2014

Change the Weather History Date:

Saturday, February 8, 2014

  Actual Average Record
Temperature  
Mean Temperature 40 °F -  
Max Temperature 42 °F - - ()
Min Temperature 39 °F - - ()
Degree Days  
Heating Degree Days 24    
Moisture  
Dew Point 39 °F    
Average Humidity 95    
Maximum Humidity 100    
Minimum Humidity 81    
Precipitation  
Precipitation 0.00 in - - ()
Sea Level Pressure  
Sea Level Pressure 29.31 in    
Wind  
Wind Speed 12 mph ()    
Max Wind Speed 17 mph    
Max Gust Speed -    
Visibility 5.9 miles    
Events Rain    
T = Trace of Precipitation, MM = Missing Value Source: Averaged Metar Reports

Daily Weather History Graph

Daily Weather History Graph

Search for Another Location

Airport or City:

Astronomy

Feb. 08, 2014 Rise Set
Actual Time 7:48 AM CET 4:55 PM CET
Civil Twilight 7:08 AM CET 5:35 PM CET
Nautical Twilight 6:24 AM CET 6:19 PM CET
Astronomical Twilight 5:41 AM CET 7:02 PM CET
Moon 11:19 AM CET (2/8) 3:00 AM CET (2/8)
Length of Visible Light 10h 26m
Length of Day
9h 06m
Waxing Gibbous, 66% of the Moon is Illuminated
Feb 8
Waxing Gibbous
Feb 15
Full
Feb 22
Last Quarter
Mar 1
New
Mar 8
First Quarter

Hourly Weather History & Observations

Time (CET) Temp. Windchill Dew Point Humidity Pressure Visibility Wind Dir Wind Speed Gust Speed Precip Events Conditions
12:20 AM 41.0 °F 33.1 °F 39.2 °F 93% 29.21 in 6.2 mi WSW 15.0 mph - N/A   Overcast
12:50 AM 41.0 °F 34.3 °F 39.2 °F 93% 29.24 in 6.2 mi WSW 11.5 mph - N/A   Overcast
1:20 AM 39.2 °F 32.0 °F 39.2 °F 100% 29.27 in 5.6 mi SW 11.5 mph - N/A   Mostly Cloudy
1:50 AM 41.0 °F 33.1 °F 39.2 °F 93% 29.27 in 6.2 mi WSW 15.0 mph - N/A   Overcast
2:20 AM 41.0 °F 33.1 °F 41.0 °F 100% 29.27 in 6.2 mi WSW 15.0 mph - N/A   Mostly Cloudy
2:50 AM 41.0 °F 32.8 °F 39.2 °F 93% 29.30 in 6.2 mi WSW 16.1 mph - N/A   Overcast
3:20 AM 39.2 °F 30.8 °F 37.4 °F 93% 29.30 in 6.2 mi WSW 15.0 mph - N/A   Scattered Clouds
3:50 AM 39.2 °F 30.8 °F 37.4 °F 93% 29.33 in 6.2 mi WSW 15.0 mph - N/A   Scattered Clouds
4:20 AM 39.2 °F 32.0 °F 37.4 °F 93% 29.33 in 6.2 mi SW 11.5 mph - N/A   Partly Cloudy
4:50 AM 39.2 °F 31.2 °F 37.4 °F 93% 29.33 in 6.2 mi SW 13.8 mph - N/A   Mostly Cloudy
5:20 AM 39.2 °F 31.6 °F 39.2 °F 100% 29.36 in 6.2 mi SW 12.7 mph - N/A   Scattered Clouds
5:50 AM 39.2 °F 31.6 °F 37.4 °F 93% 29.36 in 6.2 mi SW 12.7 mph - N/A   Scattered Clouds
6:20 AM 39.2 °F 31.6 °F 37.4 °F 93% 29.36 in 6.2 mi SW 12.7 mph - N/A   Mostly Cloudy
6:50 AM 39.2 °F 31.2 °F 39.2 °F 100% 29.36 in 5.6 mi SSW 13.8 mph - N/A   Drizzle
7:20 AM 39.2 °F 30.8 °F 39.2 °F 100% 29.36 in 6.2 mi SSW 15.0 mph - N/A   Mostly Cloudy
7:50 AM 39.2 °F 31.2 °F 39.2 °F 100% 29.39 in 6.2 mi SW 13.8 mph - N/A   Mostly Cloudy
8:20 AM 39.2 °F 31.6 °F 39.2 °F 100% 29.39 in 6.2 mi SSW 12.7 mph - N/A   Mostly Cloudy
8:50 AM 39.2 °F 31.2 °F 39.2 °F 100% 29.39 in 6.2 mi SSW 13.8 mph - N/A   Mostly Cloudy
9:20 AM 39.2 °F 30.8 °F 39.2 °F 100% 29.39 in 6.2 mi SSW 15.0 mph - N/A   Mostly Cloudy
9:50 AM 39.2 °F 30.2 °F 37.4 °F 93% 29.39 in 6.2 mi SSW 17.3 mph - N/A   Overcast
10:20 AM 39.2 °F 30.8 °F 37.4 °F 93% 29.39 in 6.2 mi SSW 15.0 mph - N/A   Overcast
10:50 AM 39.2 °F 31.6 °F 39.2 °F 100% 29.39 in 4.3 mi SSW 12.7 mph - N/A   Overcast
11:20 AM 39.2 °F 31.6 °F 39.2 °F 100% 29.39 in 5.0 mi South 12.7 mph - N/A   Mostly Cloudy
11:50 AM 41.0 °F 34.3 °F 39.2 °F 93% 29.39 in 6.2 mi South 11.5 mph - N/A   Partly Cloudy
12:20 PM 41.0 °F 33.9 °F 39.2 °F 93% 29.36 in 6.2 mi South 12.7 mph - N/A   Partly Cloudy
12:50 PM 41.0 °F 34.3 °F 39.2 °F 93% 29.36 in 6.2 mi South 11.5 mph - N/A   Partly Cloudy
1:20 PM 42.8 °F 35.8 °F 39.2 °F 87% 29.36 in 6.2 mi SSE 13.8 mph - N/A   Partly Cloudy
1:50 PM 42.8 °F 35.8 °F 37.4 °F 81% 29.33 in 6.2 mi SSE 13.8 mph - N/A   Scattered Clouds
2:20 PM 41.0 °F 33.9 °F 37.4 °F 87% 29.33 in 6.2 mi SSE 12.7 mph - N/A   Mostly Cloudy
2:50 PM 41.0 °F 33.9 °F 37.4 °F 87% 29.30 in 6.2 mi South 12.7 mph - N/A   Mostly Cloudy
3:20 PM 41.0 °F 33.1 °F 37.4 °F 87% 29.30 in 6.2 mi SSE 15.0 mph - N/A   Mostly Cloudy
3:50 PM 41.0 °F 32.8 °F 37.4 °F 87% 29.30 in 6.2 mi SSE 16.1 mph - N/A   Scattered Clouds
4:20 PM 41.0 °F 33.1 °F 37.4 °F 87% 29.30 in 6.2 mi SSE 15.0 mph - N/A   Mostly Cloudy
4:50 PM 41.0 °F 33.9 °F 37.4 °F 87% 29.27 in 6.2 mi SSE 12.7 mph - N/A   Mostly Cloudy
5:20 PM 39.2 °F 33.0 °F 37.4 °F 93% 29.27 in 6.2 mi SE 9.2 mph - N/A   Mostly Cloudy
5:50 PM 39.2 °F 32.0 °F 37.4 °F 93% 29.27 in 6.2 mi SE 11.5 mph - N/A   Overcast
6:20 PM 39.2 °F 32.5 °F 37.4 °F 93% 29.30 in 6.2 mi SE 10.4 mph - N/A   Overcast
6:50 PM 39.2 °F 33.0 °F 39.2 °F 100% 29.27 in - SE 9.2 mph - N/A   Drizzle
7:20 PM 39.2 °F 33.6 °F 37.4 °F 93% 29.27 in 3.7 mi SE 8.1 mph - N/A   Drizzle
7:50 PM 39.2 °F 33.6 °F 39.2 °F 100% 29.27 in 4.3 mi SE 8.1 mph - N/A   Drizzle
8:20 PM 39.2 °F 33.6 °F 39.2 °F 100% 29.27 in 3.7 mi SE 8.1 mph - N/A Rain Light Rain
8:50 PM 39.2 °F 34.2 °F 39.2 °F 100% 29.27 in 5.6 mi SE 6.9 mph - N/A   Drizzle
9:20 PM 39.2 °F 33.6 °F 39.2 °F 100% 29.27 in 5.6 mi SE 8.1 mph - N/A   Drizzle
9:50 PM 39.2 °F 33.0 °F 39.2 °F 100% 29.24 in 6.2 mi SE 9.2 mph - N/A Rain Light Rain
10:20 PM 39.2 °F 32.0 °F 39.2 °F 100% 29.24 in 3.7 mi SSE 11.5 mph - N/A Rain Light Rain
10:50 PM 39.2 °F 32.5 °F 39.2 °F 100% 29.24 in 6.2 mi SSE 10.4 mph - N/A Rain Light Rain
11:20 PM 41.0 °F 34.7 °F 39.2 °F 93% 29.24 in 5.6 mi SSE 10.4 mph - N/A   Drizzle
11:50 PM 41.0 °F 34.7 °F 39.2 °F 93% 29.24 in 6.2 mi SSE 10.4 mph - N/A   Drizzle